Hourly Data Report for November 18, 2019

All times are specified in Local Standard Time (LST). Add 1 hour to adjust for Daylight Saving Time where and when it is observed.

HOPE A
BRITISH COLUMBIA
Current Station Operator: NAVCAN

49°22'06.000" N
121°29'53.000" W
39.00 m
1113542
71187
YHE

Download Data

Hourly Data (November 2019)
Hourly Data Report for November 18, 2019
TIME Temp Definition
°C
Dew Point Definition
°C
Rel Hum Definition
%
Wind Dir Definition
10's deg

Wind Spd Definition
km/h
Visibility Definition
km
Stn Press Definition
kPa
Hmdx Definition


Wind Chill Definition


Weather Definition


00:00 9.3 7.6 89   0 16.1 101.73     LegendNANA
01:00 8.2 7.5 95 LegendMM 4 16.1 101.66     LegendNANA
02:00 8.7 7.0 89 LegendMM 4 16.1 101.67     LegendNANA
03:00 9.0 5.9 81 LegendMM 8 16.1 101.64     LegendNANA
04:00 9.2 4.7 74 LegendMM 11 16.1 101.58     LegendNANA
05:00 7.9 5.0 82 LegendMM 5 16.1 101.50     LegendNANA
06:00 7.3 5.8 90 9 13 16.1 101.42     LegendNANA
07:00 7.4 5.6 88 7 5 16.1 101.38     LegendNANA
08:00 7.1 5.9 92 9 9 16.1 101.37     LegendNANA
09:00 7.2 6.2 93 9 15 16.1 101.22     LegendNANA
10:00 8.1 6.6 90 8 11 16.1 101.04     LegendNANA
11:00 9.1 7.0 87 7 11 16.1 100.92     LegendNANA
12:00 10.1 7.1 82 10 17 16.1 100.76     LegendNANA
13:00 10.2 7.2 81 8 5 16.1 100.65     LegendNANA
14:00 10.1 7.6 84 9 9 16.1 100.58     LegendNANA
15:00 10.0 7.8 86 8 9 16.1 100.47     LegendNANA
16:00 10.3 7.4 82 11 18 16.1 100.37     LegendNANA
17:00 9.4 7.9 90 6 8 16.1 100.31     Rain
18:00 8.7 8.0 95 6 8 16.1 100.20     Rain
19:00 8.8 7.9 94 7 8 16.1 100.08     LegendNANA
20:00 8.4 7.6 95 7 8 16.1 100.05     Rain
21:00 8.4 7.8 96 7 8 12.9 100.07     Rain
22:00 8.0 7.6 97 LegendMM 4 6.4 100.08     Moderate Rain,Fog
23:00 7.8 6.9 94 8 8 11.3 100.07     Moderate Rain

Notes on Data Quality.

Legend

  • E = Estimated
  • M = Missing
  • NA = Not Available
Date modified: